Regional Weather Roundup
Issued by NWS

Home | Current Version | Previous Version | Text Only | Print | Product List | Glossary On
Versions: 1 2 3 4 5 6 7 8 9 10 11 12 13 14 15 16 17 18 19 20 21 22 23 24 25 26 27 28 29 30 31 32 33 34 35 36 37 38 39 40 41 42 43 44 45 46 47 48 49 50
000
ASUS43 KDTX 291601
RWRMI
MICHIGAN HOURLY REGIONAL WEATHER ROUNDUP
NATIONAL WEATHER SERVICE DETROIT/PONTIAC MI
1200 PM EDT THU SEP 29 2016

NOTE: "FAIR" INDICATES FEW OR NO CLOUDS BELOW 12,000 FEET WITH NO
SIGNIFICANT WEATHER AND/OR OBSTRUCTION TO VISIBILITY.

MIZ047>049-052>055-059>063-066>070-074>076-081>083-291700-
SOUTHEAST LOWER MICHIGAN

CITY           SKY/WX    TMP DP  RH WIND       PRES   REMARKS
ADRIAN         CLOUDY    61  58  90 E9        30.17R
ALMA           RAIN      62  58  88 NE14G23   30.25S
ANN ARBOR      CLOUDY    61  58  90 NE7       30.17S
BAD AXE        CLOUDY    61  53  75 NE14G22   30.28S
CARO           RAIN      61  55  81 E12G20    30.25R
DETROIT CITY   LGT RAIN  61  61 100 E5        30.18S
DETROIT        LGT RAIN  61  59  93 NE7       30.18R FOG
FLINT          LGT RAIN  60  58  92 NE14      30.22R FOG
HILLSDALE      CLOUDY    61  57  88 NE9       30.15R
HOWELL         CLOUDY    60  59  97 NE8       30.20R

CITY           SKY/WX    TMP DP  RH WIND       PRES   REMARKS
JACKSON        CLOUDY    61  60  97 NE10      30.17R
LAMBERTVILLE   MOSUNNY   63  57  81 NE3       30.16R
LANSING        RAIN      59  57  93 NE14      30.21R FOG
LAPEER         LGT RAIN  59  58  95 E5        30.23R
MASON          RAIN      59  57  96 NE10G16   30.19R
MONROE         CLOUDY    63  60  88 N6        30.15R
MT. CLEMENS    CLOUDY    64  59  86 NE14      30.17R
PONTIAC        CLOUDY    60  57  89 NE9       30.19R
PORT HURON     CLOUDY    63  59  88 NE7       30.21R
TRI CITIES     CLOUDY    63  56  78 NE16      30.27R
MIDLAND        CLOUDY    63  54  74 NE18      30.27R
TROY           CLOUDY    61  59  92 NE7       30.20S
SAGINAW HB     CLOUDY    63  54  72 NE14G20   30.25R
$$
MIZ043>046-050>051-056>058-064>065-071>073-077>080-291700-
SOUTHWEST LOWER MICHIGAN

CITY           SKY/WX    TMP DP  RH WIND       PRES   REMARKS
BATTLE CREEK   CLOUDY    61  59  93 NE9       30.17R
BENTON HARBOR  CLOUDY    61  57  87 NE7G16    30.15S
BIG RAPIDS     CLOUDY    64  56  76 NE10G16   30.27S
COLDWATER      CLOUDY    63  59  85 E14       30.14R
FREMONT        CLOUDY    64  55  73 NE16G23   30.25R
HOLLAND        LGT RAIN  61  57  87 NE10G21   30.19R
GRAND RAPIDS   LGT RAIN  60  57  89 NE17G28   30.21R FOG
IONIA          LGT RAIN  58  56  94 NE13G23   30.21R
KALAMAZOO      CLOUDY    62  57  83 VRB7      30.16R
LUDINGTON      MOSUNNY   67  57  70 NE14G23   30.28S
MARSHALL       CLOUDY    61  60  96 NE7       30.16R
MOUNT PLEASANT CLOUDY    63  55  77 NE13      30.26S
MUSKEGON       CLOUDY    65  56  72 NE16G23   30.23R
SOUTH HAVEN    CLOUDY    61  60  95 NE12      30.17R
$$
MIZ016>042-291700-
NORTHERN LOWER MICHIGAN

CITY           SKY/WX    TMP DP  RH WIND       PRES   REMARKS
ALPENA         PTSUNNY   63  53  70 NE21G31   30.38R
BEAVER ISLAND  CLOUDY    61  57  86 NE13      30.41S
BELLAIRE       MOSUNNY   67  55  66 NE13G18   30.35S
CADILLAC       PTSUNNY   66  53  63 E17G24    30.31R
CHARLEVOIX     MOSUNNY   63  56  77 E15G22    30.41S
FRANKFORT      SUNNY     68  55  62 NE9G16    30.33S
GAYLORD        MOSUNNY   64  54  69 NE17G23   30.37R
GRAYLING       PTSUNNY   64  54  69 E14G25    30.35S
HARBOR SPRINGS CLOUDY    62  56  81 E12G18    30.39S HAZE
HOUGHTON LAKE  MOSUNNY   63  52  67 NE20G29   30.33S
MANISTEE       SUNNY     67  55  65 E17G23    30.30R
OSCODA         MOSUNNY   65  52  64 NE20G26   30.32F
PELLSTON       CLOUDY    62  55  77 E16       30.41R
ROGERS CITY    CLOUDY    62  56  82 NE12      30.41S
TRAVERSE CITY  MOSUNNY   67  56  67 NE13G20   30.33S
$$
MIZ007>008-015-291700-
EASTERN UPPER MICHIGAN

CITY           SKY/WX    TMP DP  RH WIND       PRES   REMARKS
KINROSS        SUNNY     63  54  72 NE12      30.43S
MACKINAC ISLAN CLOUDY    61  55  82 E10G16    30.42S
NEWBERRY       SUNNY     64  54  69 NE8       30.42F
S. S. MARIE    SUNNY     66  51  58 VRB6      30.42F
MUNISING         N/A     64  58  80 N12       30.44R
$$
MIZ004>006-011>014-085-291700-
CENTRAL UPPER MICHIGAN

CITY           SKY/WX    TMP DP  RH WIND       PRES   REMARKS
MANISTIQUE     SUNNY     67  55  65 NE10      30.41F
ESCANABA       SUNNY     66  55  67 NE10G21   30.42R
MENOMINEE      SUNNY     66  54  65 NE16      30.40R
SAWYER-GWINN   PTSUNNY   61  54  77 N15       30.47R
$$
MIZ001>003-009>011-084-291700-
WESTERN UPPER MICHIGAN

CITY           SKY/WX    TMP DP  RH WIND       PRES   REMARKS
IRON MOUNTAIN  MOSUNNY   64  52  64 N9        30.44R
HOUGHTON       CLOUDY    58  52  80 NE5       30.50R
COPPER HARBOR    N/A     56  53  90 NE10      30.50R
IRONWOOD         N/A    N/A N/A N/A MISG        N/A
$$

ABBREVIATIONS USED IN REMARKS
   TC - TEMPERATURE IN CELSIUS
  WCI - WIND CHILL INDEX
   HX - HEAT INDEX
  VSB - VISIBILITY




USA.gov is the U.S. government's official web portal to all federal, state and local government web resources and services.